Погода в Кофс-Харборе

Австралия     30°18′09″S   153°07′15″E
темп.,
°C
ветер,
м/с
пор.,
м/с
влажн.,
%
обл.,
%
осадки,
мм/ч
давл.,
гПа
погр.,
м
28 июня, вт
вт2801:00+10ююз412653 0.0 1026932
04:00+8ююз312725 0.0 1025690
07:00+9ююз3117796 0.0 1026695
10:00+13ю4106252 0.1 10271194
13:00+14ю496191 0.1 10251468
16:00+13ю486719 0.3 10251291
19:00+10юз298099 0.1 1028540
22:00+11ююз297493 0.3 1027525
29 июня, ср
ср2901:00+10юз167891 0.1 1027325
04:00+10зюз137997 0.1 1026106
07:00+10зюз128096 0.0 102779
10:00+15ю135886 0.0 1027815
13:00+16юв2258100 0.0 10241090
16:00+14юв1277100 0.1 1024125
19:00+12з1185100 0.1 102536
22:00+12зсз1178100 0.1 102440
30 июня, чт
чт3001:00+12сз1176100 0.0 102330
04:00+12зсз1177100 0.0 102342
07:00+12зсз117793 0.0 102435
10:00+17с125788 0.0 1024732
13:00+19ссв124797 0.0 10211523
16:00+15ююв1173100 0.1 102145
19:00+13юз1180100 0.0 102327
22:00+13зюз1281100 0.0 102465
1 июля, пт
пт101:00+12зюз118499 0.0 102424
04:00+12зюз1282100 0.0 102455
07:00+12зюз1191100 0.1 102529
10:00+13ююз1287100 0.1 1025127
13:00+14ю0184100 0.0 1023176
16:00+13ю1286100 0.1 1022130
19:00+12зюз1195100 0.4 102329
22:00+12ююв0199100 2.9 102366
2 июля, сб
сб201:00+12юз01100100 2.4 102185
04:00+12ююз12100100 5.4 1020100
07:00+12ююз13100100 2.4 1020147
10:00+12юз1299100 7.3 102098
13:00+12юз1399100 2.2 1018146
16:00+12юз1499100 2.9 1017165
19:00+12юз2698100 0.1 1018217
22:00+12юз2597100 0.2 1018183